Weather History for KLUF - January, 2013

Change the Weather History Date:

Tuesday, January 29, 2013

  Actual Average Record
Temperature  
Mean Temperature 47 °F -  
Max Temperature 57 °F 68 °F 72 °F (2014)
Min Temperature 37 °F 39 °F 41 °F (2014)
Degree Days  
Heating Degree Days 18    
Moisture  
Dew Point 31 °F    
Average Humidity 57    
Maximum Humidity 91    
Minimum Humidity 28    
Precipitation  
Precipitation 0.00 in - - ()
Sea Level Pressure  
Sea Level Pressure 30.09 in    
Wind  
Wind Speed 6 mph (WSW)    
Max Wind Speed 15 mph    
Max Gust Speed 20 mph    
Visibility 10 miles    
Events      
Averages and records for this station are not official NWS values.
T = Trace of Precipitation, MM = Missing Value Source: NWS Daily Summary

Daily Weather History Graph

Daily Weather History Graph

Search for Another Location

Airport or City:

Trip Planner

Search our weather history database for the weather conditions in past years. The results will help you decide how hot, cold, wet, or windy it might be!

Date:

Astronomy

Jan. 29, 2013 Rise Set
Actual Time 7:27 AM MST 5:58 PM MST
Civil Twilight 7:01 AM MST 6:24 PM MST
Nautical Twilight 6:31 AM MST 6:54 PM MST
Astronomical Twilight 6:02 AM MST 7:23 PM MST
Moon 8:46 PM MST (1/29) 8:36 AM MST (1/29)
Length of Visible Light 11h 23m
Length of Day
10h 30m
Waning Gibbous, 93% of the Moon is Illuminated
Jan 29
Waning Gibbous
Feb 3
Last Quarter
Feb 10
New
Feb 17
First Quarter
Feb 25
Full

Hourly Weather History & Observations

Time (MST) Temp. Windchill Dew Point Humidity Pressure Visibility Wind Dir Wind Speed Gust Speed Precip Events Conditions
12:58 AM 45.1 °F 42.0 °F 32.7 °F 62% 30.02 in 10.0 mi SW 5.8 mph - N/A   Clear
1:58 AM 43.0 °F 37.7 °F 33.4 °F 69% 30.02 in 10.0 mi West 9.2 mph - N/A   Clear
2:58 AM 41.0 °F 38.0 °F 34.7 °F 78% 30.04 in 10.0 mi NW 4.6 mph - N/A   Clear
3:58 AM 40.8 °F 36.2 °F 32.9 °F 73% 30.04 in 10.0 mi WNW 6.9 mph - N/A   Clear
4:58 AM 39.9 °F - 32.0 °F 73% 30.06 in 10.0 mi NW 2.3 mph - N/A   Clear
5:58 AM 37.9 °F - 32.2 °F 80% 30.07 in 10.0 mi Calm Calm - N/A   Clear
6:58 AM 37.0 °F 34.5 °F 34.5 °F 91% 30.08 in 10.0 mi SSE 3.5 mph - N/A   Clear
7:58 AM 37.0 °F - 34.5 °F 91% 30.10 in 10.0 mi South 2.3 mph - N/A   Clear
8:58 AM 40.8 °F 36.2 °F 30.6 °F 67% 30.12 in 10.0 mi SSW 6.9 mph - N/A   Clear
9:58 AM 43.7 °F 39.1 °F 30.7 °F 60% 30.13 in 10.0 mi SSW 8.1 mph - N/A   Clear
10:58 AM 46.6 °F - 30.6 °F 54% 30.13 in 10.0 mi SSE 3.5 mph - N/A   Clear
11:58 AM 49.8 °F - 28.2 °F 43% 30.12 in 10.0 mi SSE 4.6 mph - N/A   Clear
12:58 PM 53.1 °F - 30.2 °F 42% 30.09 in 10.0 mi WSW 2.3 mph - N/A   Clear
1:12 PM 55.4 °F - 32.0 °F 41% 30.07 in 10.0 mi West 13.8 mph 19.6 mph N/A   Clear
1:58 PM 55.4 °F - 28.0 °F 35% 30.06 in 10.0 mi SW 12.7 mph - N/A   Clear
2:58 PM 56.8 °F - 23.5 °F 28% 30.03 in 10.0 mi West 15.0 mph - N/A   Clear
3:58 PM 57.7 °F - 26.6 °F 30% 30.05 in 10.0 mi WSW 12.7 mph - N/A   Scattered Clouds
4:58 PM 56.7 °F - 27.9 °F 33% 30.06 in 10.0 mi WSW 13.8 mph - N/A   Mostly Cloudy
5:58 PM 54.3 °F - 27.7 °F 36% 30.08 in 10.0 mi WNW 5.8 mph - N/A   Mostly Cloudy
6:58 PM 51.4 °F - 31.1 °F 46% 30.10 in 10.0 mi West 6.9 mph - N/A   Mostly Cloudy
7:58 PM 50.4 °F - 31.6 °F 49% 30.12 in 10.0 mi Calm Calm - N/A   Mostly Cloudy
8:58 PM 51.4 °F - 28.6 °F 41% 30.14 in 10.0 mi NW 2.3 mph - N/A   Mostly Cloudy
9:58 PM 45.3 °F 42.3 °F 35.4 °F 68% 30.16 in 10.0 mi NE 5.8 mph - N/A   Mostly Cloudy
10:58 PM 46.9 °F - 33.8 °F 60% 30.19 in 10.0 mi WNW 3.5 mph - N/A   Clear
11:58 PM 44.2 °F 40.3 °F 34.7 °F 69% 30.21 in 10.0 mi NE 6.9 mph - N/A   Clear